Change the Weather History Date:

Monday, August 19, 2013

  Actual Average Record
Temperature  
Mean Temperature 81 °F 82 °F  
Max Temperature 88 °F 92 °F 100 °F (2000)
Min Temperature 73 °F 71 °F 61 °F (1976)
Degree Days  
Heating Degree Days 0 0  
Month to date heating degree days 0 0  
Since 1 June heating degree days 0 0  
Since 1 July heating degree days 0 0  
Cooling Degree Days 16 16  
Month to date cooling degree days 319 322  
Year to date cooling degree days 1599 1682  
Since 1 June cooling degree days 1257 1267  
Growing Degree Days 30 (Base 50)    
Moisture  
Dew Point 72 °F    
Average Humidity 75    
Maximum Humidity 94    
Minimum Humidity 55    
Precipitation  
Precipitation 0.02 in 0.16 in 1.78 in (1953)
Month to date precipitation 3.80 2.85  
Year to date precipitation 51.94 40.28  
Sea Level Pressure  
Sea Level Pressure 30.02 in    
Wind  
Wind Speed 2 mph (SW)    
Max Wind Speed 16 mph    
Max Gust Speed -    
Visibility 8 miles    
Events Rain , Thunderstorm    
T = Trace of Precipitation, MM = Missing Value Source: NWS Daily Summary

Daily Weather History Graph

Daily Weather History Graph

Search for Another Location

Airport or City:

Trip Planner

Search our weather history database for the weather conditions in past years. The results will help you decide how hot, cold, wet, or windy it might be!

Date:

Astronomy

Aug. 19, 2013 Rise Set
Actual Time 6:25 AM CDT 7:35 PM CDT
Civil Twilight 5:59 AM CDT 8:00 PM CDT
Nautical Twilight 5:29 AM CDT 8:30 PM CDT
Astronomical Twilight 4:58 AM CDT 9:01 PM CDT
Moon 6:26 PM CDT (8/19) 4:46 AM CDT (8/19)
Length of Visible Light 14h 00m
Length of Day
13h 10m
Waxing Gibbous, 97% of the Moon is Illuminated
Aug 19
Waxing Gibbous
Aug 20
Full
Aug 28
Last Quarter
Sep 5
New
Sep 12
First Quarter

Hourly Weather History & Observations

Time (CDT) Temp. Heat Index Dew Point Humidity Pressure Visibility Wind Dir Wind Speed Gust Speed Precip Events Conditions
12:53 AM 73.9 °F - 72.0 °F 93% 30.01 in 8.0 mi Calm Calm - 0.00 in   Overcast
1:53 AM 73.9 °F - 72.0 °F 93% 30.00 in 5.0 mi Calm Calm - N/A   Overcast
2:10 AM 73.4 °F - 71.6 °F 94% 30.00 in 2.5 mi Calm Calm - 0.00 in Rain Light Rain
2:24 AM 73.4 °F - 71.6 °F 94% 30.00 in 4.0 mi Calm Calm - 0.01 in   Overcast
2:51 AM 73.4 °F - 71.6 °F 94% 30.00 in 2.0 mi Calm Calm - 0.01 in   Overcast
2:53 AM 73.9 °F - 72.0 °F 93% 30.00 in 1.8 mi Calm Calm - 0.01 in   Overcast
3:21 AM 73.4 °F - 71.6 °F 94% 30.00 in 2.5 mi Calm Calm - N/A   Overcast
3:29 AM 73.4 °F - 71.6 °F 94% 30.01 in 5.0 mi Calm Calm - N/A   Overcast
3:53 AM 73.9 °F - 72.0 °F 93% 30.00 in 3.0 mi Calm Calm - N/A   Overcast
4:02 AM 73.4 °F - 71.6 °F 94% 30.01 in 7.0 mi Calm Calm - N/A   Overcast
4:45 AM 73.4 °F - 71.6 °F 94% 30.01 in 10.0 mi Calm Calm - N/A   Overcast
4:53 AM 73.9 °F - 72.0 °F 93% 30.01 in 7.0 mi Calm Calm - N/A   Overcast
5:43 AM 73.4 °F - 71.6 °F 94% 30.02 in 6.0 mi West 3.5 mph - 0.01 in Rain Light Rain
5:53 AM 73.9 °F - 72.0 °F 93% 30.01 in 7.0 mi Calm Calm - 0.01 in   Overcast
6:02 AM 73.4 °F - 71.6 °F 94% 30.02 in 10.0 mi Calm Calm - N/A   Overcast
6:53 AM 73.9 °F - 72.0 °F 93% 30.03 in 10.0 mi Calm Calm - N/A   Overcast
7:53 AM 75.0 °F - 72.0 °F 90% 30.04 in 10.0 mi Calm Calm - N/A   Overcast
8:36 AM 77.0 °F - 71.6 °F 83% 30.05 in 10.0 mi West 4.6 mph - N/A   Mostly Cloudy
8:53 AM 77.0 °F - 72.0 °F 84% 30.05 in 10.0 mi WSW 4.6 mph - N/A   Mostly Cloudy
9:00 AM 77.0 °F - 71.6 °F 83% 30.06 in 10.0 mi WSW 3.5 mph - N/A   Mostly Cloudy
9:45 AM 78.8 °F - 71.6 °F 78% 30.07 in 10.0 mi SSW 6.9 mph - N/A   Scattered Clouds
9:53 AM 80.1 °F 83.6 °F 71.1 °F 74% 30.06 in 10.0 mi South 6.9 mph - N/A   Mostly Cloudy
10:53 AM 80.1 °F 83.6 °F 71.1 °F 74% 30.07 in 10.0 mi Calm Calm - N/A   Mostly Cloudy
11:40 AM 82.4 °F 87.2 °F 71.6 °F 70% 30.07 in 10.0 mi West 3.5 mph - N/A   Mostly Cloudy
11:53 AM 84.0 °F 89.6 °F 72.0 °F 67% 30.06 in 10.0 mi South 6.9 mph - N/A   Mostly Cloudy
12:53 PM 84.9 °F 90.1 °F 71.1 °F 63% 30.04 in 10.0 mi Calm Calm - N/A   Scattered Clouds
1:53 PM 84.9 °F 90.7 °F 72.0 °F 65% 30.02 in 10.0 mi Variable 3.5 mph - N/A   Clear
2:53 PM 87.1 °F 93.6 °F 72.0 °F 61% 30.01 in 10.0 mi NW 5.8 mph - N/A   Mostly Cloudy
3:53 PM 87.1 °F 92.0 °F 70.0 °F 57% 29.99 in 10.0 mi Variable 6.9 mph - N/A   Clear
4:53 PM 88.0 °F 92.1 °F 69.1 °F 53% 29.98 in 10.0 mi Variable 3.5 mph - N/A   Clear
5:53 PM 87.1 °F 92.0 °F 70.0 °F 57% 29.99 in 10.0 mi Calm Calm - N/A   Clear
6:53 PM 86.0 °F 92.2 °F 72.0 °F 63% 29.99 in 10.0 mi NNE 3.5 mph - N/A   Clear
7:53 PM 82.0 °F 87.9 °F 73.9 °F 76% 30.01 in 10.0 mi South 4.6 mph - N/A Thunderstorm Overcast
8:12 PM 82.4 °F 88.2 °F 73.4 °F 74% 30.02 in 10.0 mi South 6.9 mph - N/A   Overcast
8:53 PM 78.1 °F - 73.0 °F 84% 30.01 in 10.0 mi SE 5.8 mph - 0.00 in Rain , Thunderstorm Light Rain
9:09 PM 78.8 °F - 71.6 °F 78% 30.02 in 10.0 mi Calm Calm - 0.00 in   Overcast
9:53 PM 78.1 °F - 73.0 °F 84% 30.03 in 10.0 mi Calm Calm - 0.00 in   Overcast
10:53 PM 75.9 °F - 73.0 °F 91% 30.03 in 10.0 mi SE 3.5 mph - N/A   Partly Cloudy
11:53 PM 75.9 °F - 73.0 °F 91% 30.02 in 10.0 mi Calm Calm - N/A   Scattered Clouds